User: anonymous   Login
Location: Spradlin Observatory
(33.4706°N, 86.3221°W)
Time: 16:18:02
(UTC-06:00)
Language:

COSMOS 2406 - Orbit

View from above orbital plane
View from above orbital plane
View from above satellite
View from above satellite

Ground track
Ground track

The orbit data is extracted from the following two-line orbital elements,

1 28352U 04021A   16344.90734755 -.00000608 +00000-0 -30818-3 0  9994
2 28352 071.0035 159.9155 0012926 019.1884 340.9721 14.11626449644091
Epoch (UTC): 09 December 2016 21:46:34
Eccentricity: 0.0012926
inclination: 71.0035°
perigee height: 844 km
apogee height: 863 km
right ascension of ascending node: 159.9155°
argument of perigee: 19.1884°
revolutions per day: 14.11626449
mean anomaly at epoch: 340.9721°
orbit number at epoch: 64409

The dashed part of the orbit path shows where the satellite is in the earth's shadow,  

DLR